Weather Roundup
Issued by NWS

Home | Current Version | Previous Version | Text Only | Print | Product List | Glossary On
Versions: 1 2 3 4 5 6 7 8 9 10 11 12 13 14 15 16 17 18 19 20 21 22 23 24 25 26 27 28 29 30 31 32 33 34 35 36 37 38 39 40 41 42 43 44 45 46 47 48 49 50
000
NZUS93 KARX 182059
HRRWXR

CURRENT HOURLY OBSERVATIONS ACROSS
MUCH OF THE UPPER MISSISSIPPI VALLEY
NATIONAL WEATHER SERVICE LA CROSSE WI
400 PM CDT FRI APR 18 2014


...SOUTHEAST MINNESOTA...


CITY           SKY/WX    TMP DP  RH WIND       PRES   REMARKS
ROCHESTER      MOSUNNY   53  29  39 E7        30.29F
ROCHESTER/MAYO FAIR      53  25  33 E6        30.29F
WINONA         MOSUNNY   54  27  35 SE6       30.33F
AUSTIN         MOSUNNY   54  28  37 SE10      30.27F
ALBERT LEA     MOSUNNY   55  30  38 E13       30.25F
DODGE CENTER   SUNNY     54  27  35 SE8       30.29F
PRESTON        MOSUNNY   53  29  39 E9        30.30F
OWATONNA       MOSUNNY   54  34  47 E15       30.27F
FARIBAULT      MOSUNNY   54  28  37 E10       30.28F
$$

...ELSEWHERE IN MINNESOTA...


CITY           SKY/WX    TMP DP  RH WIND       PRES   REMARKS
MINNEAPOLIS    CLOUDY    51  29  42 E15       30.29F
INTNL FALLS    MOSUNNY   45  12  26 SE9G18    30.30F
DULUTH         SUNNY     37  20  50 SE13      30.35F WCI  29
RED WING       SUNNY     54  23  30 SE9       30.30F
REDWOOD FALLS  SUNNY     55  38  52 SE24G32   30.16F
MANKATO        MOSUNNY   54  32  43 SE17G23   30.24F
WORTHINGTON    MOSUNNY   61  30  31 SE23G32   30.14F
FAIRMONT       SUNNY     57  32  38 SE21      30.21F
$$

...SOUTHWEST WISCONSIN...


CITY           SKY/WX    TMP DP  RH WIND       PRES   REMARKS
LA CROSSE      SUNNY     55  26  32 W7        30.32F
PRAIRIE DU CHI SUNNY     55  22  27 W3        30.31F
BOSCOBEL       SUNNY     57  23  26 VRB3      30.32F
LONE ROCK      NOT AVBL
PLATTEVILLE    SUNNY     56  28  34 NE5       30.32F
FORT MC COY    SUNNY     55  22  27 NW8       30.34F
CAMP DOUGLAS   SUNNY     55  23  28 VRB1      30.33F HAZE
VIROQUA        FAIR      52  26  36 N6        30.32F
WIS DELLS      SUNNY     53  24  32 CALM      30.33F
$$

...ELSEWHERE IN WISCONSIN...


CITY           SKY/WX    TMP DP  RH WIND       PRES   REMARKS
MILWAUKEE      MOSUNNY   42  31  64 NE12      30.37S
MADISON        MOSUNNY   54  25  32 W5        30.33F
GREEN BAY      MOSUNNY   49  28  44 VRB3      30.36S
EAU CLAIRE     NOT AVBL
BLACK RVR FLS  FAIR      55  19  25 E6        30.32F
MEDFORD        MOSUNNY   44  21  39 N7        30.34F
WAUSAU         SUNNY     48  18  30 NE8       30.33S
WIS RAPIDS     SUNNY     52  20  28 N8        30.35F
MARSHFIELD     SUNNY     50  23  34 N9        30.33F
RICE LAKE      CLOUDY    45  23  41 CALM      30.36F
$$

...NORTHEAST IOWA...


CITY           SKY/WX    TMP DP  RH WIND       PRES   REMARKS
WATERLOO       SUNNY     59  28  30 S10       30.27F
DUBUQUE        SUNNY     58  29  33 CALM      30.31F
DECORAH        SUNNY     54  28  37 E7G13     30.29F
MASON CITY     SUNNY     57  31  37 SE15      30.26F
CHARLES CITY   SUNNY     55  30  38 SE8G16    30.28F
OELWEIN        SUNNY    N/A N/A N/A VRB6G12   30.30F
$$

...ELSEWHERE IN IOWA...


CITY           SKY/WX    TMP DP  RH WIND       PRES   REMARKS
DES MOINES     MOSUNNY   65  32  29 SE10G20   30.23F
IOWA CITY      SUNNY     62  32  32 CALM      30.29F
FORT DODGE     SUNNY     61  34  36 SE12G17   30.22F
MARSHALLTOWN   SUNNY     60  32  34 SE12G22   30.25F
CEDAR RAPIDS   SUNNY     61  29  29 NE7       30.27F
$$

...NORTHERN ILLINOIS...


CITY           SKY/WX    TMP DP  RH WIND       PRES   REMARKS
CHICAGO-OHARE  MOSUNNY   48  31  51 NE13      30.33F
DUPAGE         SUNNY     58  37  45 NE10      30.29F
CHICAGO-MIDWAY MOSUNNY   49  35  58 NE12      30.33F
MOLINE         SUNNY     64  30  27 VRB6      30.28F
ROCKFORD       MOSUNNY   59  29  31 VRB5      30.31F
STERLING       SUNNY     64  32  29 W5        30.29S
PEORIA         SUNNY     65  33  30 E8        30.28F
$$

NOTE: "FAIR" INDICATES FEW OR NO CLOUDS BELOW 12,000 FEET WITH NO
SIGNIFICANT WEATHER AND/OR OBSTRUCTIONS TO VISIBILITY. WIND
SPEEDS ARE IN MILES-PER-HOUR.



USA.gov is the U.S. government's official web portal to all federal, state and local government web resources and services.